FW3806 Weather Reports


time (UTC)temp
F
wind
direction
speed
knots
gust
knots
rain 1hr
in
rain 24hr
in
rain mn
in
humidity
%
barometer
mb
20260502163038 76 150 2.6 8.7 0.00 0.00 0.00 12 1014.6
20260502161525 76 200 3.5 6.1 0.00 0.00 0.00 12 1014.6
20260502151632 71 354 0.9 3.5 0.00 0.00 0.00 15 1014.5
20260502123108 66 298 0.9 3.5 0.00 0.00 0.00 15 1013.0
20260502121600 66 267 0.9 6.1 0.00 0.00 0.00 15 1013.0
20260502114601 66 300 2.6 7.0 0.00 0.00 0.00 14 1012.9
20260502113104 66 275 0.0 3.5 0.00 0.00 0.00 14 1012.9
20260502111601 66 281 0.9 4.3 0.00 0.00 0.00 14 1012.8
20260502110056 66 283 0.0 2.6 0.00 0.00 0.00 14 1012.9
20260502104552 67 290 0.9 2.6 0.00 0.00 0.00 14 1012.9
20260502103101 68 309 0.0 5.2 0.00 0.00 0.00 13 1012.9
20260502101558 69 254 0.9 5.2 0.00 0.00 0.00 12 1012.9
20260502100108 69 263 1.7 5.2 0.00 0.00 0.00 12 1012.9
20260502071527 74 63 0.0 4.3 0.00 0.00 0.00 10 1013.0
20260502070024 74 277 0.0 3.5 0.00 0.00 0.00 10 1012.9
20260502064522 75 250 0.9 8.7 0.00 0.00 0.00 9 1012.8
20260502063122 72 302 0.9 2.6 0.00 0.00 0.00 11 1012.8
20260502061532 72 210 0.0 1.7 0.00 0.00 0.00 11 1012.8
20260502060022 72 354 0.0 0.0 0.00 0.00 0.00 11 1012.6
20260502054520 72 314 0.0 1.7 0.00 0.00 0.00 11 1012.6
20260502053019 73 334 0.0 2.6 0.00 0.00 0.00 10 1012.6
20260502051523 73 2 4.3 12.2 0.00 0.00 0.00 11 1012.3
20260502050018 72 295 0.9 3.5 0.00 0.00 0.00 12 1012.0
20260502044520 72 272 0.0 0.0 0.00 0.00 0.00 11 1011.9
20260502043021 73 342 0.0 0.0 0.00 0.00 0.00 11 1011.6
20260502041524 74 314 0.0 1.7 0.00 0.00 0.00 11 1011.4
20260502040016 76 312 0.9 5.2 0.00 0.00 0.00 10 1011.0
20260502034515 76 345 2.6 6.1 0.00 0.00 0.00 9 1010.9
20260502033023 76 327 1.7 7.0 0.00 0.00 0.00 9 1010.6
20260502031515 76 20 0.0 5.2 0.00 0.00 0.00 10 1010.4
20260502030013 77 357 1.7 4.3 0.00 0.00 0.00 10 1010.2
20260502024513 77 322 1.7 5.2 0.00 0.00 0.00 10 1010.0
20260502023013 78 315 0.0 2.6 0.00 0.00 0.00 10 1009.8
20260502021511 80 321 0.9 7.0 0.00 0.00 0.00 9 1009.6
20260502020011 81 293 1.7 7.0 0.00 0.00 0.00 9 1009.6
20260502014512 81 325 4.3 9.6 0.00 0.00 0.00 9 1009.4
20260502013012 81 345 6.1 12.2 0.00 0.00 0.00 8 1009.3
20260502011509 82 326 0.9 9.6 0.00 0.00 0.00 9 1009.3
20260502010009 82 314 3.5 9.6 0.00 0.00 0.00 9 1009.3
20260502004508 82 333 6.1 12.2 0.00 0.00 0.00 9 1009.2
20260502003007 82 295 7.0 15.6 0.00 0.00 0.00 10 1009.2
20260502001507 83 342 7.0 12.2 0.00 0.00 0.00 9 1009.2
20260502000004 82 293 6.1 13.9 0.00 0.00 0.00 10 1009.4
20260501234505 82 345 3.5 10.4 0.00 0.00 0.00 10 1009.2
20260501233003 83 333 0.0 8.7 0.00 0.00 0.00 9 1009.4
20260501231502 83 297 2.6 13.9 0.00 0.00 0.00 9 1009.5
20260501230002 83 357 6.1 10.4 0.00 0.00 0.00 9 1009.5
20260501224502 83 334 4.3 11.3 0.00 0.00 0.00 8 1009.8
20260501223110 83 247 5.2 12.2 0.00 0.00 0.00 10 1009.8
20260501221600 82 323 4.3 11.3 0.00 0.00 0.00 10 1010.2
20260501220059 82 311 4.3 13.9 0.00 0.00 0.00 10 1010.2
20260501214601 82 322 3.5 10.4 0.00 0.00 0.00 11 1010.4
20260501213100 82 6 0.9 4.3 0.00 0.00 0.00 11 1010.6
20260501211615 82 332 4.3 15.6 0.00 0.00 0.00 11 1011.0
20260501210054 82 319 7.0 14.8 0.00 0.00 0.00 11 1011.0
20260501204626 83 301 0.9 7.0 0.00 0.00 0.00 12 1011.2
20260501203054 81 348 3.5 11.3 0.00 0.00 0.00 12 1011.3
20260501201551 83 289 2.6 9.6 0.00 0.00 0.00 13 1011.2
20260501200049 82 54 0.9 5.2 0.00 0.00 0.00 12 1011.6
20260501194555 80 140 4.3 9.6 0.00 0.00 0.00 13 1011.7
20260501193047 80 122 2.6 9.6 0.00 0.00 0.00 13 1011.9
20260501191546 82 94 1.7 6.1 0.00 0.00 0.00 13 1011.9
20260501190045 81 147 0.0 7.8 0.00 0.00 0.00 12 1012.4
20260501184543 80 103 0.0 3.5 0.00 0.00 0.00 13 1012.5
20260501183043 79 1 1.7 3.5 0.00 0.00 0.00 13 1012.7
20260501181547 78 310 2.6 6.1 0.00 0.00 0.00 14 1012.7
20260501180039 77 298 1.7 7.8 0.00 0.00 0.00 14 1012.9
20260501174543 77 273 1.7 6.1 0.00 0.00 0.00 14 1012.9
20260501173040 77 112 0.9 5.2 0.00 0.00 0.00 14 1012.9
20260501171534 76 78 0.0 7.0 0.00 0.00 0.00 15 1012.9
20260501170039 76 1 2.6 7.8 0.00 0.00 0.00 16 1013.0
20260501164531 75 285 3.5 8.7 0.00 0.00 0.00 16 1013.1